Simultaneous Nadir Overpasses (SNOs) Predictions

Prediction of SNOs between METOP-A and TERRA Satellite Orbit:

Table of predicted SNOs for the next 14.0 days since TLE Epoch: 12/8/2013
Index Date (METOP-A) Time (METOP-A) Lat,Lon (METOP-A) SZA (METOP-A ) Date (TERRA) Time (TERRA) Lat,Lon (TERRA) SZA (TERRA ) Distance(km) Time Diff (sec)
1 12/09/2013 19:07:28 81.32, -59.65 107.02 12/09/2013 19:08:35 81.31, -59.82 107.03 3.18 67
2 12/09/2013 19:58:08 -81.32, 108.08 72.93 12/09/2013 19:58:01 -81.32, 108.07 72.94 0.26 7
3 12/12/2013 14:41:50 81.32, 6.86 107.23 12/12/2013 14:42:48 81.31, 6.69 107.23 3.15 58
4 12/12/2013 15:32:30 -81.33, 174.59 72.73 12/12/2013 15:32:14 -81.33, 174.60 72.73 0.15 16
5 12/15/2013 10:16:13 81.32, 73.31 107.36 12/15/2013 10:17:01 81.32, 73.37 107.39 0.99 48
6 12/15/2013 11:06:53 -81.33,-118.96 72.59 12/15/2013 11:06:28 -81.32,-119.08 72.62 2.20 25
7 12/18/2013 05:50:36 81.32, 139.69 107.43 12/18/2013 05:51:14 81.33, 139.84 107.47 2.48 38
8 12/18/2013 06:41:16 -81.33, -52.57 72.53 12/18/2013 06:40:41 -81.32, -52.59 72.55 0.51 35
9 12/21/2013 01:24:58 81.32,-153.99 107.43 12/21/2013 01:25:26 81.32,-153.90 107.45 1.56 28




NCC Satellite Simultaneous Nadir Overpasses (SNOs) Prediction Service
